Regional Weather Roundup
Issued by NWS

Home | Current Version | Previous Version | Text Only | Print | Product List | Glossary On
Versions: 1 2 3 4 5 6 7 8 9 10 11 12 13 14 15 16 17 18 19 20 21 22 23 24 25 26 27 28 29 30 31 32 33 34 35 36 37 38 39 40 41
376
ASUS44 KJAN 020410
RWRMS

MISSISSIPPI HOURLY WEATHER ROUNDUP
NATIONAL WEATHER SERVICE JACKSON MS
1100 PM CDT MON SEP 01 2014

NOTE: "FAIR: INDICATES FEW OR NO CLOUDS BELOW 12,000 FEET WITH NO
SIGNIFICANT WEATHER AND/OR OBSTRUCTIONS TO VISIBILITY.

MSZ001>002-007>008-010>013-018>021-025>028-034>036-020500-
NORTHWEST MISSISSIPPI

CITY           SKY/WX    TMP DP  RH WIND       PRES   REMARKS
CLARKSDALE     FAIR      77  73  88 S3        29.98R
CLEVELAND      FAIR      76  74  91 S8        29.97S
GREENWOOD      PTCLDY    77  72  84 S9        29.99F
GREENVILLE     CLEAR     76  73  91 S7        29.97S
GRENADA        FAIR      77  70  78 S3        30.00S
OLIVE BRANCH   CLEAR     77  77 100 S9        29.98R
OXFORD         FAIR      77  70  78 S6        30.01F
TUNICA         CLEAR     79  72  78 S8        29.98R
$$

MSZ003>006-009-014>017-022>024-029>033-037>039-020500-
NORTHEAST MISSISSIPPI

CITY           SKY/WX    TMP DP  RH WIND       PRES   REMARKS
BELMONT        FAIR      78  71  78 S5        30.02F
COLUMBUS AFB   PTCLDY    79  71  77 S7        30.02S
CORINTH        FAIR      77  72  83 S6        29.99F
GOLDN TRIANGLE PTCLDY    77  70  78 S5        30.03F
STARKVILLE     MOCLDY    77  70  78 CALM      30.03S
TUPELO         CLEAR     77  71  82 S6        30.01S
$$

MSZ040-058-020500-
CENTRAL MISSISSIPPI

CITY           SKY/WX    TMP DP  RH WIND       PRES   REMARKS
JACKSON INTL   MOCLDY    76  73  91 S8        30.03S
JACKSON HAWKNS MOCLDY    77  72  84 S7        30.04R
MERIDIAN KEY   MOCLDY    76  73  91 S5        30.04F
MERIDIAN NAS   PTCLDY    77  72  84 CALM      30.04F
RAYMOND        FAIR      75  72  88 S7        30.02F
VICKSBURG      PTCLDY    77  74  90 S7        30.00S
$$

MSZ059>079-020500-
SOUTH MISSISSIPPI

CITY           SKY/WX    TMP DP  RH WIND       PRES   REMARKS
BROOKHAVEN     FAIR      75  75 100 SE6       30.05S
HATTIESBURG    CLOUDY    81  75  82 S5        30.04F
MCCOMB         CLOUDY    77  74  90 SE7       30.04F
NATCHEZ        MOCLDY    77  73  88 S9        30.01S
PINE BELT      CLOUDY    79  72  78 SE5       30.06F
$$

MSZ080>082-020500-
COASTAL MISSISSIPPI

CITY           SKY/WX    TMP DP  RH WIND       PRES   REMARKS
BILOXI         MOCLDY    84  75  74 S8        30.05F HX  92
PASCAGOULA     MOCLDY    75  74  96 CALM      30.05F FOG
GULFPORT       MOCLDY    83  75  77 SE8       30.04F HX  90
$$



USA.gov is the U.S. government's official web portal to all federal, state and local government web resources and services.